Find Starlink 31597

NORAD ID: 59464 Int'l Des: 2024-068 Owner: SPXS Country: US Constellation: starlink operational
LEOCIRCULAR

リアルタイム位置

3D地球を読み込み中...

Starlink 31597について

説明を読み込み中...

次回通過

Passes for default location (London). Set your location on the main map for personalized predictions.

高度履歴

Loading altitude history...

軌道要素

1 59464U 24068K 26124.21073753 .00002286 00000-0 92567-4 0 9992
2 59464 43.0027 80.9871 0001317 272.3641 87.7060 15.27583426116960
Epoch: May 4, 2026 • Age: 15 hours

現在のステータス

高度 488.7 km
速度 7.62 km/s
衛星直下点 -24.96°S, 122.51°E
打ち上げ日 Apr 10, 2024
運用期間 2 years
タイプ internet

技術仕様

分類 Payload
質量 730.00 kg
乾燥質量 700.00 kg
総質量 730.00 kg
長さ 0.30 m
直径 4.10 m
スパン 29.00 m
形状 Box + pan
製造者 SPXS
バスタイプ Starlink V2M
フェーズステータス In Orbit
所有者/国 SPXS/US

Most Searched